Weather History for Marrakech, Morocco

Change the Weather History Date:

Sunday, November 7, 2010

  Actual Average Record
Temperature  
Mean Temperature 62 °F -  
Max Temperature 74 °F 69 °F 87 °F (1998)
Min Temperature 50 °F 48 °F 48 °F (2008)
Degree Days  
Heating Degree Days 3    
Growing Degree Days 12 (Base 50)    
Moisture  
Dew Point 48 °F    
Average Humidity 62    
Maximum Humidity 88    
Minimum Humidity 24    
Precipitation  
Precipitation 0.00 in 0.05 in - ()
Sea Level Pressure  
Sea Level Pressure 30.03 in    
Wind  
Wind Speed 4 mph ()    
Max Wind Speed 9 mph    
Max Gust Speed -    
Visibility 5.4 miles    
Events      
Averages and records for this station are not official NWS values.
T = Trace of Precipitation, MM = Missing Value Source: Averaged Metar Reports

Daily Weather History Graph

Daily Weather History Graph

Search for Another Location

Airport:

Trip Planner

Search our weather history database for the weather conditions in past years. The results will help you decide how hot, cold, wet, or windy it might be!

Date:

Astronomy

Nov. 07, 2010 Rise Set
Actual Time 6:53 AM WET 5:38 PM WET
Civil Twilight 6:27 AM WET 6:03 PM WET
Nautical Twilight 5:58 AM WET 6:32 PM WET
Astronomical Twilight 5:29 AM WET 7:01 PM WET
Moon 8:14 AM WET (11/7) 6:34 PM WET (11/7)
Length of Visible Light 11h 36m
Length of Day
10h 45m
New Moon, 2% of the Moon is Illuminated
Nov 7
New Moon
Nov 13
First Quarter
Nov 21
Full
Nov 28
Last Quarter
Dec 5
New

Hourly Weather History & Observations

Time (WET) Temp. Dew Point Humidity Pressure Visibility Wind Dir Wind Speed Gust Speed Precip Events Conditions
12:00 AM 57 °F 50 °F 71% 30.12 in 6 mi SW 3.5 mph - -  
12:00 AM 57.2 °F 50.0 °F 77% 30.12 in - SW 3.5 mph - N/A   Clear
12:30 AM 57.2 °F 51.8 °F 82% 30.12 in - SW 5.8 mph - N/A   Clear
1:00 AM 59.0 °F 51.8 °F 77% 30.09 in - SW 4.6 mph - N/A   Clear
1:30 AM 55.4 °F 50.0 °F 82% 30.09 in - SW 3.5 mph - N/A   Clear
2:00 AM 55.4 °F 50.0 °F 82% 30.09 in - West 4.6 mph - N/A   Clear
2:30 AM 53.6 °F 50.0 °F 88% 30.09 in - SW 3.5 mph - N/A   Clear
3:00 AM 53 °F 48 °F 78% 30.09 in 6 mi SW 2.3 mph - -  
3:00 AM 53.6 °F 48.2 °F 82% 30.06 in - SW 2.3 mph - N/A   Clear
3:30 AM 53.6 °F 50.0 °F 88% 30.06 in - Calm Calm - N/A   Clear
4:00 AM 51.8 °F 48.2 °F 88% 30.06 in - Calm Calm - N/A   Clear
4:30 AM 51.8 °F 48.2 °F 88% 30.06 in - Calm Calm - N/A   Clear
5:00 AM 51.8 °F 48.2 °F 88% 30.06 in - Calm Calm - N/A   Clear
5:30 AM 53.6 °F 46.4 °F 77% 30.06 in - East 3.5 mph - N/A   Clear
5:47 AM 52 °F 46 °F 74% 30.08 in 6 mi Calm Calm - -  
6:00 AM 51.8 °F 46.4 °F 82% 30.06 in - Calm Calm - N/A   Clear
6:30 AM 50.0 °F 44.6 °F 82% 30.06 in - Calm Calm - N/A   Clear
7:00 AM 50.0 °F 44.6 °F 82% 30.06 in - Calm Calm - N/A   Clear
7:30 AM 51.8 °F 46.4 °F 82% 30.06 in - Calm Calm - N/A   Clear
8:00 AM 55.4 °F 48.2 °F 77% 30.06 in - Calm Calm - N/A   Clear
8:30 AM 57.2 °F 50.0 °F 77% 30.06 in 5.0 mi Variable 1.2 mph - N/A   Unknown
9:00 AM 60.8 °F 50.0 °F 68% 30.09 in 5.0 mi Variable 1.2 mph - N/A   Unknown
9:30 AM 60.8 °F 50.0 °F 68% 30.09 in 5.0 mi NW 3.5 mph - N/A   Unknown
10:00 AM 64.4 °F 50.0 °F 59% 30.09 in 5.0 mi Variable 2.3 mph - N/A   Unknown
10:30 AM 66.2 °F 48.2 °F 52% 30.09 in 5.0 mi Variable 2.3 mph - N/A   Unknown
11:00 AM 68.0 °F 46.4 °F 46% 30.06 in 5.0 mi NW 4.6 mph - N/A   Unknown
11:30 AM 68.0 °F 46.4 °F 46% 30.06 in 5.0 mi NNW 4.6 mph - N/A   Unknown
11:46 AM 70 °F 46 °F 30% 30.00 in 5 mi North 5.8 mph - -   Clear
12:00 PM 69.8 °F 46.4 °F 43% 30.04 in 5.0 mi North 5.8 mph - N/A   Unknown
12:30 PM 69.8 °F 46.4 °F 43% 30.04 in 5.0 mi NW 5.8 mph - N/A   Unknown
1:00 PM 71.6 °F 46.4 °F 41% 30.01 in 5.0 mi NW 4.6 mph - N/A   Unknown
1:30 PM 71.6 °F 44.6 °F 38% 30.01 in - NNW 5.8 mph - N/A   Clear
2:00 PM 73.4 °F 44.6 °F 36% 29.98 in - NW 5.8 mph - N/A   Clear
2:30 PM 75.2 °F 44.6 °F 34% 29.98 in - NW 4.6 mph - N/A   Clear
3:00 PM 74 °F 44 °F 24% 29.91 in 6 mi North 6.9 mph - -   Clear
3:00 PM 73.4 °F 42.8 °F 33% 29.98 in - North 6.9 mph - N/A   Clear
3:30 PM 73.4 °F 42.8 °F 33% 29.95 in - NW 5.8 mph - N/A   Clear
4:00 PM 73.4 °F 42.8 °F 33% 29.98 in - NNW 6.9 mph - N/A   Clear
4:30 PM 73.4 °F 42.8 °F 33% 29.98 in - North 6.9 mph - N/A   Clear
5:00 PM 71.6 °F 42.8 °F 35% 29.98 in - North 5.8 mph - N/A   Clear
5:30 PM 71.6 °F 44.6 °F 38% 29.98 in - NNW 8.1 mph - N/A   Clear
6:00 PM 69 °F 45 °F 31% 29.94 in 6 mi North 9.2 mph - -   Clear
6:00 PM 69.8 °F 44.6 °F 40% 29.98 in - NNW 8.1 mph - N/A   Clear
6:30 PM 68.0 °F 44.6 °F 43% 29.98 in - North 6.9 mph - N/A   Clear
7:00 PM 68.0 °F 46.4 °F 46% 29.98 in - North 6.9 mph - N/A   Clear
7:30 PM 66.2 °F 46.4 °F 49% 30.01 in - North 6.9 mph - N/A   Clear
8:00 PM 66.2 °F 48.2 °F 52% 30.01 in 5.6 mi North 6.9 mph - N/A   Unknown
8:30 PM 64.4 °F 51.8 °F 64% 30.01 in - North 6.9 mph - N/A   Clear
9:00 PM 63 °F 53 °F 62% 29.98 in 6 mi NNE 9.2 mph - -   Clear
9:00 PM 62.6 °F 53.6 °F 72% 30.01 in - NNE 9.2 mph - N/A   Clear
9:30 PM 62.6 °F 53.6 °F 72% 30.01 in - NNE 9.2 mph - N/A   Clear
10:00 PM 60.8 °F 55.4 °F 82% 30.01 in 6.2 mi NNE 8.1 mph - N/A   Unknown
10:30 PM 60.8 °F 55.4 °F 82% 30.01 in - NNE 5.8 mph - N/A   Clear
11:00 PM 60.8 °F 55.4 °F 82% 30.01 in - NE 6.9 mph - N/A   Clear
11:30 PM 59.0 °F 55.4 °F 88% 30.04 in 6.2 mi NE 4.6 mph - N/A   Scattered Clouds